Previsão horária em Barnislaw

Hoje, 23 Julho, Sexta-feira

Tempo Temperatura Precipitação Vento Pressão Humidade
00:00 +14°C° 0 mm 1 m/s 757 mmHg 86%
01:00 +14°C° 0 mm 1 m/s 757 mmHg 88%
02:00 +14°C° 0 mm 1 m/s 756 mmHg 89%
03:00 +13°C° 0 mm 1 m/s 756 mmHg 90%
04:00 +13°C° 0 mm 1 m/s 756 mmHg 91%
05:00 +14°C° 0 mm 1 m/s 756 mmHg 86%
06:00 +16°C° 0 mm 1 m/s 756 mmHg 81%
07:00 +18°C° 0 mm 1 m/s 756 mmHg 75%
08:00 +20°C° 0 mm 1 m/s 756 mmHg 70%
09:00 +21°C° 0 mm 1 m/s 756 mmHg 64%
10:00 +23°C° 0 mm 1 m/s 756 mmHg 59%
11:00 +23°C° 0 mm 2 m/s 756 mmHg 56%
12:00 +24°C° 0 mm 2 m/s 756 mmHg 52%
13:00 +25°C° 0 mm 2 m/s 755 mmHg 50%
14:00 +25°C° 0 mm 2 m/s 755 mmHg 49%
15:00 +25°C° 0 mm 1 m/s 755 mmHg 49%
16:00 +25°C° 0 mm 1 m/s 755 mmHg 48%
17:00 +24°C° 0 mm 1 m/s 755 mmHg 54%
18:00 +23°C° 0 mm 1 m/s 755 mmHg 59%
19:00 +21°C° 0 mm 2 m/s 754 mmHg 65%
20:00 +20°C° 0 mm 2 m/s 755 mmHg 69%
21:00 +19°C° 0 mm 2 m/s 755 mmHg 72%
22:00 +17°C° 0 mm 2 m/s 755 mmHg 76%
23:00 +17°C° 0 mm 2 m/s 755 mmHg 76%

Amanhã, 24 Julho, Sábado

Tempo Temperatura Precipitação Vento Pressão Humidade
00:00 +17°C° 0 mm 2 m/s 755 mmHg 76%
01:00 +17°C° 0 mm 2 m/s 755 mmHg 76%
02:00 +17°C° 0 mm 2 m/s 755 mmHg 76%
03:00 +17°C° 0 mm 2 m/s 754 mmHg 75%
04:00 +17°C° 0 mm 2 m/s 754 mmHg 75%
05:00 +18°C° 0 mm 2 m/s 754 mmHg 74%
06:00 +19°C° 0 mm 2 m/s 754 mmHg 74%
07:00 +19°C° 0 mm 2 m/s 754 mmHg 73%
08:00 +21°C° 0 mm 2 m/s 754 mmHg 68%
09:00 +22°C° 0 mm 3 m/s 754 mmHg 63%
10:00 +25°C° 0 mm 4 m/s 754 mmHg 57%
11:00 +26°C° 0 mm 3 m/s 754 mmHg 52%
12:00 +27°C° 0 mm 3 m/s 754 mmHg 47%
13:00 +28°C° 0 mm 3 m/s 754 mmHg 43%
14:00 +28°C° 0 mm 3 m/s 753 mmHg 43%
15:00 +28°C° 0 mm 4 m/s 753 mmHg 43%
16:00 +29°C° 0 mm 4 m/s 753 mmHg 43%
17:00 +27°C° 0 mm 4 m/s 753 mmHg 49%
18:00 +26°C° 0 mm 4 m/s 753 mmHg 55%
19:00 +23°C° 0 mm 4 m/s 752 mmHg 61%
20:00 +22°C° 0 mm 4 m/s 753 mmHg 61%
21:00 +22°C° 0 mm 4 m/s 753 mmHg 61%
22:00 +21°C° 0 mm 4 m/s 753 mmHg 62%
23:00 +21°C° 0 mm 4 m/s 753 mmHg 62%

Depois de amanhã, 25 Julho, Domingo

Tempo Temperatura Precipitação Vento Pressão Humidade
00:00 +21°C° 0 mm 4 m/s 753 mmHg 63%
01:00 +20°C° 0 mm 3 m/s 753 mmHg 63%
02:00 +20°C° 0 mm 3 m/s 753 mmHg 66%
03:00 +19°C° 0 mm 3 m/s 752 mmHg 68%
04:00 +19°C° 0 mm 3 m/s 752 mmHg 70%
05:00 +19°C° 0 mm 4 m/s 752 mmHg 69%
06:00 +20°C° 0 mm 4 m/s 752 mmHg 68%
07:00 +21°C° 0 mm 4 m/s 752 mmHg 67%
08:00 +23°C° 0 mm 4 m/s 752 mmHg 60%
09:00 +26°C° 0 mm 5 m/s 752 mmHg 53%
10:00 +28°C° 0 mm 5 m/s 752 mmHg 47%
11:00 +29°C° 0 mm 4 m/s 752 mmHg 45%
12:00 +30°C° 0 mm 4 m/s 752 mmHg 42%
13:00 +30°C° 0 mm 4 m/s 752 mmHg 40%
14:00 +30°C° 0 mm 3 m/s 752 mmHg 44%
15:00 +29°C° 0 mm 3 m/s 752 mmHg 49%
16:00 +29°C° 0 mm 3 m/s 751 mmHg 53%
17:00 +26°C° 0.4 mm 3 m/s 752 mmHg 64%
18:00 +24°C° 0.4 mm 3 m/s 752 mmHg 74%
19:00 +21°C° 0.4 mm 3 m/s 752 mmHg 85%
20:00 +20°C° 0.2 mm 4 m/s 752 mmHg 87%
21:00 +20°C° 0.2 mm 4 m/s 752 mmHg 89%
22:00 +19°C° 0.2 mm 4 m/s 753 mmHg 91%
23:00 +19°C° 0 mm 4 m/s 752 mmHg 91%

26 Julho, Segunda-feira

Tempo Temperatura Precipitação Vento Pressão Humidade
00:00 +19°C° 0 mm 3 m/s 752 mmHg 92%
01:00 +18°C° 0 mm 3 m/s 752 mmHg 92%
02:00 +18°C° 0 mm 2 m/s 752 mmHg 93%
03:00 +18°C° 0 mm 2 m/s 752 mmHg 94%
04:00 +17°C° 0 mm 2 m/s 752 mmHg 94%
05:00 +19°C° 0 mm 2 m/s 752 mmHg 90%
06:00 +20°C° 0 mm 3 m/s 752 mmHg 86%
07:00 +21°C° 0 mm 3 m/s 752 mmHg 82%
08:00 +22°C° 0 mm 3 m/s 752 mmHg 75%
09:00 +25°C° 0 mm 3 m/s 752 mmHg 67%
10:00 +27°C° 0 mm 2 m/s 752 mmHg 60%
11:00 +28°C° 0 mm 2 m/s 752 mmHg 56%
12:00 +28°C° 0 mm 2 m/s 752 mmHg 53%
13:00 +29°C° 0 mm 2 m/s 751 mmHg 50%
14:00 +30°C° 0 mm 2 m/s 751 mmHg 50%
15:00 +30°C° 0 mm 2 m/s 751 mmHg 50%
16:00 +30°C° 0 mm 2 m/s 751 mmHg 50%
17:00 +27°C° 3.2 mm 3 m/s 751 mmHg 63%
18:00 +23°C° 3.2 mm 4 m/s 751 mmHg 76%
19:00 +21°C° 3.2 mm 5 m/s 751 mmHg 88%
20:00 +20°C° 2.6 mm 4 m/s 751 mmHg 88%
21:00 +19°C° 2.6 mm 3 m/s 752 mmHg 87%
22:00 +19°C° 2.6 mm 2 m/s 752 mmHg 86%
23:00 +18°C° 0 mm 2 m/s 752 mmHg 88%

27 Julho, Terça-feira

Tempo Temperatura Precipitação Vento Pressão Humidade
00:00 +18°C° 0 mm 2 m/s 752 mmHg 90%
01:00 +18°C° 0 mm 2 m/s 752 mmHg 92%
02:00 +17°C° 0 mm 2 m/s 752 mmHg 93%
03:00 +17°C° 0 mm 2 m/s 752 mmHg 93%
04:00 +17°C° 0 mm 2 m/s 752 mmHg 93%
05:00 +18°C° 0 mm 2 m/s 752 mmHg 89%
06:00 +19°C° 0 mm 2 m/s 753 mmHg 86%
07:00 +20°C° 0 mm 2 m/s 753 mmHg 82%
08:00 +23°C° 0 mm 2 m/s 753 mmHg 74%
09:00 +24°C° 0 mm 2 m/s 753 mmHg 67%
10:00 +25°C° 0 mm 2 m/s 753 mmHg 59%
11:00 +26°C° 0 mm 2 m/s 753 mmHg 56%
12:00 +27°C° 0 mm 2 m/s 753 mmHg 53%
13:00 +28°C° 0 mm 2 m/s 753 mmHg 49%
14:00 +27°C° 0 mm 2 m/s 753 mmHg 53%
15:00 +27°C° 0 mm 2 m/s 753 mmHg 56%
16:00 +26°C° 0 mm 2 m/s 753 mmHg 60%
17:00 +26°C° 0 mm 2 m/s 752 mmHg 63%
18:00 +25°C° 0 mm 2 m/s 752 mmHg 66%
19:00 +24°C° 0 mm 2 m/s 752 mmHg 69%
20:00 +23°C° 0 mm 2 m/s 752 mmHg 74%
21:00 +20°C° 0 mm 2 m/s 752 mmHg 79%
22:00 +19°C° 0 mm 2 m/s 752 mmHg 84%
23:00 +19°C° 0.1 mm 2 m/s 752 mmHg 86%

28 Julho, Quarta-feira

Tempo Temperatura Precipitação Vento Pressão Humidade
00:00 +18°C° 0.1 mm 2 m/s 752 mmHg 88%
01:00 +18°C° 0.1 mm 2 m/s 752 mmHg 90%
02:00 +17°C° 0.3 mm 3 m/s 751 mmHg 91%
03:00 +17°C° 0.3 mm 3 m/s 751 mmHg 93%
04:00 +17°C° 0.3 mm 3 m/s 751 mmHg 94%
05:00 +17°C° 0.1 mm 3 m/s 751 mmHg 94%
06:00 +18°C° 0.1 mm 2 m/s 751 mmHg 94%
07:00 +18°C° 0.1 mm 2 m/s 751 mmHg 94%
08:00 +19°C° 0.6 mm 3 m/s 751 mmHg 92%
09:00 +19°C° 0.6 mm 3 m/s 751 mmHg 91%
10:00 +19°C° 0.6 mm 4 m/s 751 mmHg 90%
11:00 +21°C° 0.8 mm 5 m/s 751 mmHg 82%
12:00 +22°C° 0.8 mm 5 m/s 751 mmHg 75%
13:00 +23°C° 0.8 mm 6 m/s 751 mmHg 67%
14:00 +23°C° 0.4 mm 5 m/s 751 mmHg 67%
15:00 +23°C° 0.4 mm 5 m/s 751 mmHg 67%
16:00 +23°C° 0.4 mm 5 m/s 751 mmHg 67%
17:00 +22°C° 0.6 mm 5 m/s 751 mmHg 70%
18:00 +21°C° 0.6 mm 4 m/s 752 mmHg 73%
19:00 +20°C° 0.6 mm 4 m/s 752 mmHg 77%
20:00 +19°C° 0 mm 4 m/s 752 mmHg 81%
21:00 +18°C° 0 mm 4 m/s 753 mmHg 85%
22:00 +17°C° 0 mm 4 m/s 753 mmHg 89%
23:00 +15°C° 0 mm 4 m/s 753 mmHg 90%
Mostrar mais